Regional Weather Roundup
Issued by NWS

Home | Current Version | Previous Version | Graphics & Text | Print | Product List | Glossary On
Versions: 1 2 3 4 5 6 7 8 9 10 11 12 13 14 15 16 17 18 19 20 21 22 23 24 25 26 27 28 29 30 31 32 33 34 35 36 37 38 39 40 41 42 43 44 45 46 47 48 49 50
000
ASUS43 KMPX 040701
RWRMN
WEATHER ROUNDUP FOR MINNESOTA
NATIONAL WEATHER SERVICE TWIN CITIES/CHANHASSEN MN
200 AM CDT TUE AUG 04 2015


NOTE: "FAIR" INDICATES FEW OR NO CLOUDS BELOW 12,000 FEET WITH NO
SIGNIFICANT WEATHER AND/OR OBSTRUCTIONS TO VISIBILITY. N/A MEANS
CURRENT SKY AND/OR WEATHER CONDITIONS ARE NOT AVAILABLE.

MNZ060>063-068>070-040800-
   Twin Cities Metro

CITY           SKY/WX    TMP DP  RH WIND       PRES   REMARKS
TWIN CITIES    CLEAR     65  53  65 NW3       29.95R
ST PAUL        CLEAR     64  54  69 W3        29.95R
CRYSTAL        CLEAR     64  53  67 W5        29.94S
BLAINE         CLEAR     61  54  77 CALM      29.95S
LAKEVILLE      CLEAR     57  54  88 W5        29.96R
EDEN PRAIRIE   CLEAR     64  54  69 NW6       29.95R
SOUTH ST PAUL  CLEAR     65  52  62 CALM      29.95R
LAKE ELMO      FAIR      55  54  94 CALM      29.95F
$$
MNZ001>005-007-008-013>017-022>024-027-028-040800-
   Northwest Minnesota

CITY           SKY/WX    TMP DP  RH WIND       PRES   REMARKS
BEMIDJI        CLEAR     53  46  79 W3        29.95S
HALLOCK        CLEAR     54  48  82 N5        29.95R
ROSEAU         CLEAR     52  46  82 CALM      29.94S
WARROAD        CLEAR     55  52  88 NW3       29.94S
THIEF RVR FALL CLOUDY    57  48  72 CALM      29.95S
CROOKSTON      CLEAR     54  50  87 SE5       29.95S
FOSSTON        CLEAR     48  46  93 CALM      29.96S
DETROIT LAKES  CLEAR     57  54  88 CALM      29.96F
MOORHEAD       CLEAR     55  48  76 S5        29.96S
PARK RAPIDS    CLEAR     51  47  86 CALM      29.96S
MAHNOMEN       FAIR      55  51  88 CALM      29.95F
$$
MNZ006-009>011-018-025>026-040800-
   North Central Minnesota

CITY           SKY/WX    TMP DP  RH WIND       PRES   REMARKS
BAUDETTE       CLEAR     52  49  89 W5        29.92R
FLAG ISLAND    CLEAR     59  54  82 W10       29.91S
INTL FALLS     CLEAR     44  43  96 SW3       29.91R
WASKISH        CLEAR     61  55  82 NW5       29.93S
BIG FORK       CLEAR     46  45  93 CALM      29.93S
LONGVILLE      CLEAR     50  48  93 CALM      29.94F
GRAND RAPIDS   CLEAR     54  48  82 CALM      29.93S
CRANE LAKE     CLOUDY    54  54 100 CALM      29.91R
ORR            MOCLDY    52  48  87 CALM      29.89S
COOK           MOCLDY    48  48 100 CALM      29.92S
WALKER         FAIR      50  48  92 CALM      29.95S
$$
MNZ012-019>021-037-040800-
   Northeast Minnesota

CITY           SKY/WX    TMP DP  RH WIND       PRES   REMARKS
DULUTH         CLEAR     54  50  86 W8        29.91S
ELY            CLOUDY    54  52  94 W3        29.90R
HIBBING        MOCLDY    46  45  96 W3        29.92R
EVELETH        PTCLDY    50  48  93 CALM      29.92S
DULUTH HARBOR  CLEAR     57  54  88 SW3       29.91S
TWO HARBORS    CLEAR     61  54  77 W5        29.88R
SILVER BAY     MOCLDY    57  54  88 CALM      29.86S
GRAND MARAIS     N/A     51  49  92 CALM      29.84S
G MARAIS ARPRT CLOUDY    55  50  82 NW3       29.87S
$$
MNZ029>031-032-039>041-046>048-054>057-064-040800-
   West Central Minnesota

CITY           SKY/WX    TMP DP  RH WIND       PRES   REMARKS
FERGUS FALLS   CLEAR     55  54  94 CALM      29.97R
WHEATON        CLEAR     54  52  94 CALM      29.99S
MORRIS         CLEAR     54  50  87 CALM      29.97S
ALEXANDRIA     CLEAR     57  52  83 SW6       29.98F
ELBOW LAKE     FAIR      56  54  92 S6        29.97F
WADENA         CLEAR     52  46  82 CALM      29.95F
GLENWOOD       CLEAR     55  52  88 SW5       29.99S
APPLETON       FAIR      55  52  88 SW5       29.97S
BENSON         CLEAR     50  48  93 CALM      29.97F
ORTONVILLE     CLEAR     55  52  88 CALM      29.97F
MADISON        CLEAR     54  52  94 CALM      29.97F
WILLMAR        FAIR      55  52  88 CALM      30.00R
$$
MNZ033>034-036-042>043-049>051-058-059-040800-
   Central Minnesota

CITY           SKY/WX    TMP DP  RH WIND       PRES   REMARKS
ST CLOUD       CLEAR     53  51  93 SW3       29.95F
SAUK CENTRE    FAIR      51  49  92 CALM      29.97F
PAYNESVILLE    CLEAR     48  48  98 SW3       29.98S
AITKIN         CLEAR     55  48  76 W3        29.93S
PINE RIVER     CLEAR     54  48  82 CALM      29.98S
BRAINERD       CLEAR     52  50  93 CALM      29.95F
STAPLES        CLEAR     54  48  82 CALM      29.96S
LONG PRAIRIE   FAIR      50  50 100 CALM      29.97S
LITCHFIELD     CLEAR     61  55  82 W3        29.98S
BUFFALO        CLEAR     60  52  73 CALM      29.97S
$$
MNZ037-044-045-052-053-040800-
   East Central Minnesota

CITY           SKY/WX    TMP DP  RH WIND       PRES   REMARKS
PRINCETON      CLEAR     54  52  94 CALM      29.95S
MORA           CLEAR     52  50  93 CALM      29.96S
CAMBRIDGE      CLEAR     57  48  72 CALM      29.92F
RUSH CITY      MOCLDY    52  51  95 CALM      29.94S
MOOSE LAKE     CLEAR     50  48  93 SW3       29.91F
HINCKLEY       FAIR      52  52 100 CALM      29.93F
CLOQUET        PTCLDY    55  50  82 W5        29.92S
MCGREGOR       CLEAR     55  52  88 W5        29.94S
$$
MNZ071>073-080-081-089-090-097-098-040800-
   Southwest Minnesota

CITY           SKY/WX    TMP DP  RH WIND       PRES   REMARKS
MONTEVIDEO     CLEAR     54  45  71 CALM      29.99S
GRANITE FALLS  CLEAR     51  49  94 CALM      29.99S
CANBY          CLEAR     54  51  90 CALM      29.99S
MARSHALL       CLEAR     55  48  76 CALM      29.99S
REDWOOD FALLS  CLEAR     59  53  80 CALM      29.97F
OLIVIA         CLEAR     52  46  82 N6        29.97S
PIPESTONE      CLEAR     61  54  77 CALM      29.99F
WINDOM         CLEAR     54  52  94 CALM      29.99F
WORTHINGTON    CLEAR     55  52  88 CALM      30.00S
JACKSON        CLEAR     55  54  94 CALM      30.00S
TRACY          CLEAR     61  54  77 CALM      29.99S
SLAYTON        CLEAR     56  54  92 CALM      30.01S
$$
MNZ065>067-074>077-082>085-091>093-040800-
   South Central Minnesota

CITY           SKY/WX    TMP DP  RH WIND       PRES   REMARKS
MANKATO        CLEAR     59  52  77 NW5       29.97S
NEW ULM        CLEAR     55  52  88 CALM      29.97F
ST JAMES         N/A     57  54  88 S3        29.99S
FAIRMONT       CLEAR     57  48  72 CALM      29.97F
GLENCOE        CLEAR     55  53  91 CALM      29.97S
FARIBAULT      CLEAR     59  54  82 NW3       29.97R
OWATONNA       CLEAR     55  52  88 CALM      29.97S
WASECA         CLEAR     52  50  93 CALM      29.98F
ALBERT LEA     CLEAR     57  54  88 CALM      29.97S
$$
MNZ078>079-086>088-094>096-040800-
   Southeast Minnesota

CITY           SKY/WX    TMP DP  RH WIND       PRES   REMARKS
ROCHESTER      CLEAR     56  52  86 W9        29.97S
RED WING       CLEAR     57  55  94 CALM      29.94R
STANTON        CLEAR     58  53  83 CALM      29.95R
DODGE CENTER   PTCLDY    55  52  88 W5        29.97S
WINONA         CLEAR     59  55  88 CALM      29.93R
AUSTIN         CLEAR     59  54  82 NW3       29.96S
PRESTON        CLEAR     57  51  79 W8        29.96S
$$
ABBREVIATIONS USED IN REMARKS
   TC - TEMPERATURES IN CELSIUS
  WCI - WIND CHILL INDEX
   HX - HEAT INDEX
  VSB - VISIBILITY
$$



USA.gov is the U.S. government's official web portal to all federal, state and local government web resources and services.